Torna al catalogo

P 76-5

AttivoScienzaSSO
NORAD 8860·PAYLOAD·🇺🇸 United States

Lanciato May 22, 1976 da Vandenberg Space Force Base

Loading…

Prossimi Passaggi (prossime 24 ore)

TLE

AggiornatoSource: Space-Track

Epoca: Sep 14, 2026, 14:43 UTC

1 08860U 76047A   26257.61333212  .00000060  00000-0  12459-3 0  9999
2 08860  99.8918 113.1398 0042096 129.5326 238.8131 13.68318104508625

Traccia P 76-5 in tempo reale con AllMySat

Download on the App Store